Dauntless Aviation
Airports North America Mexico

Fausto Vega Santander Airport

MEXICO

Airport Info
Suggest Updated Information for this Airport

Location

Latitude / Longitude: 20°56'48"N / 97°22'30"W
  20°56.808'N / 97°22.506'W
  20.9468 / -97.3751
Satellite photo at:
Airport distance calculator
From:
Weather Reports

METAR

TAF

MMPA
27.3nm S
TAF MMPA 190518Z 1906/2006 03006KT 1/2SM -DZ FG OVC005 TEMPO 1910/1914 1/4SM -DZ FG VV002 FM191500 15008KT 3SM BR BKN010 FM191900 14010KT 6SM HZ BKN020 BECMG 2002/2004 13005KT
Safelog

 

Dauntless Aviation

© 2007-2019 Dauntless Aviation, all rights reserved
Information provided via PilotNav comes from a variety of official and unofficial data sources. As errors are possible, do not use PilotNav for primary flight planning purposes. Verify any information that you receive via PilotNav with current and canonical charts and other official documents. The material in this database is subject to database copyrights held by Dauntless Aviation and may not be copied without the express permission of Dauntless Aviation - licenses for use of part of all of this data are available for purchase; enquire via the Dauntless Aviation helpdesk. A number of mechanisms and markers exist in the database to protect against and identify infringement / copyright. Automated queries against this website are stictly prohibited, and all activity is logged and analyzed.